Flag for Germany Weather past 2 weeks in Norden, Lower Saxony, Germany

Now
62 °F

Passing clouds.


Feels Like: 62 °F
Forecast: 58 / 75 °F
Wind: 1 mph from Southwest

Location: Norderney

Current Time: Jul 7, 2015 at 12:28:21 AM

Latest Report: Jul 6, 2015 at 11:00 PM


Visibility: 28 mi

Pressure: 30.05 "Hg

Humidity: 77%

Dew point: 55 °F

Location of NordenLocation

Historic Weather in Norden — Graph

°F

Norden temperature yesterday

Maximum temperature yesterday: 67 °F (at 2:00 PM)
Minimum temperature yesterday: 62 °F (at 7:00 AM)
Average temperature yesterday: 64 °F

Past Weeks' High & Low Weather Summary

 TemperatureHumidityPressure
High92 °F (Jul 2, 6:00 PM)96% (Jun 26, 2:00 AM)30.29 "Hg (Jun 26, 2:00 AM)
Low52 °F (Jun 22, 12:00 PM)37% (Jul 1, 6:00 PM)29.67 "Hg (Jun 22, 8:00 PM)
Average64 °F78%30.06 "Hg
* Reported Jun 21 11:00 PM — Jul 6 11:00 PM, Norden, Weather by CustomWeather, © 2015

Note: Actual official high and low records may vary slightly from our data, if they occured in-between our weather recording intervals... More about our weather records

Advertising

Norden weather history for previous 24 hours

 ConditionsComfort  
Time TempWeatherWind HumidityBarometerVisibility
11:00 PM
Mon, Jul 6
62 °FPassing clouds.1 mph77%30.05 "Hg28 mi
10:00 PM63 °FPartly sunny.5 mph74%30.07 "Hg22 mi
9:00 PM64 °FOvercast.7 mph71%30.09 "Hg19 mi
8:00 PM64 °FOvercast.7 mph70%30.09 "Hg19 mi
7:00 PM65 °FPassing clouds.8 mph68%30.09 "Hg11 mi
6:00 PM66 °FSunny.9 mph69%30.11 "Hg7 mi
5:00 PM65 °FPassing clouds.9 mph71%30.12 "Hg9 mi
4:00 PM66 °FSunny.9 mph71%30.12 "Hg8 mi
3:00 PM66 °FSunny.8 mph72%30.11 "Hg7 mi
2:00 PM67 °FSunny.10 mph72%30.11 "Hg7 mi
1:00 PM67 °FPassing clouds.10 mph70%30.10 "Hg11 mi
12:00 PM67 °FScattered clouds.8 mph67%30.09 "Hg16 mi
11:00 AM65 °FPassing clouds.9 mph71%30.09 "Hg22 mi
10:00 AM65 °FSunny.9 mph70%30.07 "Hg7 mi
9:00 AM64 °FSunny.10 mph70%30.06 "Hg9 mi
8:00 AM62 °FPassing clouds.9 mph74%30.05 "Hg9 mi
7:00 AM62 °FPassing clouds.10 mph78%30.04 "Hg18 mi
6:00 AM63 °FSunny.12 mph76%30.03 "Hg25 mi
5:00 AM63 °FPassing clouds.9 mph75%30.02 "Hg22 mi
4:00 AM64 °FClear.9 mph72%30.01 "Hg22 mi
3:00 AM64 °FPassing clouds.8 mph86%29.99 "Hg16 mi
2:00 AM63 °FClear.9 mph85%29.98 "Hg14 mi
1:00 AM63 °FPassing clouds.12 mph87%29.96 "Hg16 mi
12:00 AM65 °FOvercast.8 mph80%29.95 "Hg43 mi
Weather by CustomWeather, © 2015

See weather overviewHow to use our weather pages